www.pogodaiklimat.ru

Погода и климат >> Архив погоды >> Колумбия >> Neiva


ПОГОДА в Neiva

  • Прогноз погоды в Neiva
  • Монитор погоды в Neiva
  • Климат города

АРХИВ ПОГОДЫ в Neiva

Время (UTC), дата Ветер
(напр.,м/с)
 
Видим.   Явления Облачность Т
(С)
Тd
(С)
f
(%)
Тe
(С)
Тes
(С)
Комфортность P
(гПа)
Po
(гПа)
Тmin
(С)
Tmax
(С)
R
(мм)
R24
(мм)
S
(см)
12 17.04 штиль 0 18 км 9/1 1000 м
[Cu hum Ac As Cs]
+23.2 +21.6 91 +31 +32 очень
душно
1010.8 960.4 +21.8 2
15 17.04 штиль 0 18 км 9/1 800 м
[Cu hum Ac trans Cs]
+27.2 +20.4 66 +34 +45 очень
душно
1011.9 962.1
18 17.04 штиль 0 18 км 9/1 1050 м
[Cu hum Ac trans]
+31.0 +19.5 50 +37 +48 очень
душно
1008.8 959.7
21 17.04 Ю 4 18 км 9/1 1200 м
[Cu hum Ac As]
+30.7 +18.1 47 +35 +37 очень
душно
1005.9 956.9
00 18.04 штиль 0 18 км 10/1 1200 м
[Sc diur, vesp Ac As Cs]
+27.4 +20.8 67 +34 +34 очень
душно
1007.1 957.5 +31.7
03 18.04 штиль 0 18 км 9/1 1050 м
[Sc diur, vesp Ac As Cs]
+25.2 +21.7 81 +32 +32 очень
душно
1009.7 959.7
12 18.04 штиль 0 18 км 9/0
[Ac trans]
+23.5 +21.6 89 +30 +31 очень
душно
1010.1 959.8 +23.0
15 18.04 штиль 0 18 км 9/1 600 м
[Cu hum Ac trans]
+27.5 +20.5 66 +34 +43 очень
душно
1011.2 961.4
18 18.04 Ю 2 14 км осадки на расстоянии 8/1 1200 м
[Cu med, cong Ac As]
+31.0 +17.5 44 +35 +43 очень
душно
1008.4 959.4
21 18.04 Ю 3 16 км осадки на расстоянии 8/1 1200 м
[Cu hum Ac As Cs]
+32.0 +18.2 44 +37 +39 очень
душно
1004.7 955.9
00 19.04 Ю 2 18 км 3/1 1350 м
[Cu hum Ac trans Cs]
+29.3 +19.6 56 +35 +35 очень
душно
1005.9 956.7 +33.3
03 19.04 штиль 0 18 км 4/3 450 м
[Cu Sc Ac trans]
+26.6 +20.3 68 +33 +33 очень
душно
1009.6 959.8
12 19.04 штиль 0 7000 м осадки на расстоянии 6/1 1000 м
[Cu hum Ac As Cs]
+23.2 +20.4 84 +30 +32 очень
душно
1010.9 960.5 +22.9
15 19.04 штиль 0 9000 м осадки на расстоянии 10/1 1350 м
[Cu hum Ac As]
+26.3 +20.0 68 +32 +38 очень
душно
1012.0 962.0
18 19.04 Ю 1 16 км осадки на расстоянии 9/1 1050 м
[Cu med, cong Ac As]
+29.8 +20.2 56 +36 +44 очень
душно
1010.1 960.8
00 20.04 Ю 1 16 км осадки на расстоянии 10/1 1200 м
[Cu hum Ac As Cs]
+27.9 +20.7 65 +35 +35 очень
душно
1008.7 959.1 +30.9
03 20.04 штиль 0 18 км 9/1 1050 м
[Cu hum Ac As]
+26.3 +21.5 75 +34 +34 очень
душно
1012.0 962.0
12 20.04 Ю 1 18 км 9/0
[Ac As]
+24.7 +18.7 69 +29 +30 душно 1010.3 960.2 +23.2
15 20.04 Ю 3 18 км 9/0
[Ac As]
+27.0 +19.4 63 +33 +38 очень
душно
1011.4 961.5
18 20.04 Ю 3 18 км осадки на расстоянии 10/1 1200 м
[Cu hum Ac As]
+30.6 +17.9 47 +35 +40 очень
душно
1009.0 959.9
21 20.04 Ю 2 18 км 8/1 1200 м
[Cu hum Ac trans Cs]
+31.9 +17.0 41 +35 +39 очень
душно
1005.6 956.8
00 21.04 штиль 0 18 км 5/1 1050 м
[Cu hum Ac trans Cs]
+29.4 +19.2 54 +35 +35 очень
душно
1006.3 957.1 +32.2
03 21.04 штиль 0 18 км ясно +24.7 +20.4 77 +31 +31 очень
душно
1010.1 960.0
12 21.04 штиль 0 18 км 8/1 1500 м
[Cu hum Ac As]
+22.7 +21.2 91 +30 +31 очень
душно
1010.5 960.0 +22.7
15 21.04 штиль 0 15 км осадки на расстоянии 9/1 1050 м
[Cu hum Ac As]
+26.5 +20.4 69 +33 +40 очень
душно
1010.6 960.7
18 21.04 Ю 2 15 км осадки на расстоянии 9/1 1500 м
[Sc diur, vesp Ac As]
+28.4 +20.1 61 +35 +42 очень
душно
1009.0 959.5
21 21.04 Ю 3 18 км 8/0
[Ac trans]
+30.4 +17.9 47 +35 +37 очень
душно
1005.5 956.5
00 22.04 Ю 1 18 км 5/0
[Ac trans Cs]
+28.0 +20.6 64 +35 +35 очень
душно
1006.3 956.9 +30.4
12 22.04 Ю 1 18 км 9/1 1000 м
[Cu hum Ac trans Cs]
+23.3 +19.2 78 +30 +31 очень
душно
1009.4 959.1 +22.7
15 22.04 Ю 2 18 км 9/1 1500 м
[Cu hum Ac trans Cs]
+28.1 +18.1 55 +33 +41 очень
душно
1010.0 960.4
18 22.04 Ю 2 17 км осадки на расстоянии 9/1 1050 м
[Cu hum Ac As]
+31.7 +17.1 42 +35 +42 очень
душно
1007.4 958.5
21 22.04 штиль 0 10 км осадки на расстоянии 9/1 1200 м
[Sc diur, vesp Ac As]
+29.8 +19.7 55 +36 +39 очень
душно
1004.8 955.7
00 23.04 штиль 0 10 км в посл. час морось 9/3 900 м
[St Ac As]
+24.7 +23.0 90 +33 +33 очень
душно
1008.5 958.5 +31.7 1
12 23.04 штиль 0 18 км 9/1 600 м
[Sc Ac As]
+22.5 +20.2 87 +29 +30 очень
душно
1011.3 960.7 +22.4 1
15 23.04 Ю 2 18 км 9/1 900 м
[Cu hum Ac trans]
+27.4 +21.1 69 +35 +41 очень
душно
1011.6 961.8
18 23.04 Ю 3 18 км 8/1 1200 м
[Cu hum Ac As]
+30.8 +17.6 45 +35 +42 очень
душно
1007.6 958.6
21 23.04 Ю 3 18 км 6/1 1300 м
[Cu hum Ac As]
+33.2 +16.9 38 +36 +39 очень
душно
1003.8 955.3
00 24.04 штиль 0 18 км 8/1 1350 м
[Cu hum Ac As Cs]
+30.4 +21.7 60 +39 +39 очень
душно
1005.3 956.3 +33.3
03 24.04 штиль 0 18 км 4/1 800 м
[Cu hum Ac trans]
+27.6 +19.8 62 +33 +33 очень
душно
1008.1 958.5

 

Местоположение метеостанции Neiva (Колумбия): широта 2.97 долгота -75.30 высота над уровнем моря 443 м.

В архиве по умолчанию представлена погода в Neiva за последнюю неделю. Архивные данные за месяц целиком и за предыдущие месяцы, начиная с января 2011 года, Вы можете получить, выбрав интересующий диапазон дат из раскрывающегося списка и нажав кнопку "Ввод!".


*Определитесь, кто Вы:
робот инопланетянин человек

Внимание! Время в таблицах - всемирное. Для получения местного времени необходимо прибавить поправку, которая в Neiva равна -5 ч.

Смотрите также архив погоды в соседних городах и на ближайших метеорологических станциях:

Погода в Cali (Колумбия) (136 км)
Погода в Ibague (Колумбия) (163 км)
Погода в Armenia (Колумбия) (176 км)
Погода в Pereira (Колумбия) (211 км)
Погода в Villavicencio (Колумбия) (230 км)
Погода в Bogota (Колумбия) (232 км)
Погода в Pasto (Колумбия) (278 км)
Погода в Quibdo (Колумбия) (339 км)
Погода в Rionegro (Колумбия) (352 км)
Погода в Ipiales (Колумбия) (353 км)

Пояснения к столбцам:

Ветер - указаны скорость ветра в м/с - средняя за 10 мин, порывы в срок и между сроками (в фигурных скобках) и направление, откуда дует ветер: С - северный, СВ - северо-восточный, В - восточный, ЮВ - юго-восточный, Ю - южный, ЮЗ - юго-западный, З - западный, СЗ - северо-западный.
Видимость - горизонтальная дальность видимости в метрах или километрах. При видимости от 1 до 10 км при отсутствии осадков обычно наблюдается дымка, при ухудшении видимости до 1 км и менее - туман. В сухую погоду видимость может ухудшаться дымом, пылью или мглою.
Явления - указаны атмосферные явления, наблюдавшиеся в срок или в последний час перед сроком; фигурными скобками обозначены явления, наблюдавшиеся между сроками (за 1-3 часа до срока); квадратными скобками обозначены град или гололедные отложения с указанием их диаметра в мм.
Облачность - указаны через наклонную черту общая и нижняя облачность в баллах и высота нижней границы облаков в метрах; квадратными скобками обозначены формы облаков: Ci - перистые, Cs - перисто-слоистые, Cc - перисто-кучевые, Ac - высококучевые, As - высокослоистые, Sc - слоисто-кучевые, Ns - слоисто-дождевые, Cu - кучевые, Cb - кучево-дождевые. Подробнее классификацию облаков см. в Атласе облаков (PDF).
T - Температура воздуха - температура, измеренная на высоте 2 м над землей.
Td - Температура точки росы - температура, при понижении до которой содержащийся в воздухе водяной пар достигнет насыщения.
f - Относительная влажность воздуха - влажноcть воздуха, измеренная на высоте 2 м над землей.
Te - Эффективная температура - температура, которую ощущает одетый по сезону человек в тени. Характеристика душности погоды. При расчете учитывается влияние влажности воздуха и скорости ветра на теплоощущения человека.
Tes - Эффективная температура на солнце - температура, которую ощущает человек, с поправкой на солнечный нагрев. Характеристика знойности погоды. Зависит от высоты солнца над горизонтом, облачности и скорости ветра. Ночью, в пасмурную погоду, а также при ветре 12 м/с и более поправка равна нулю.
P - Атмосферное давление - приведенное к уровню моря атмосферное давление.
Po - Атмосферное давление - измеренное на уровне метеостанции атмосферное давление.
Tmin - Минимальная температура - минимум температуры воздуха на высоте 2 м над землей.
Tmax - Максимальная температура - максимум температуры воздуха на высоте 2 м над землей.
R - Количество осадков - Количество выпавших осадков за период времени, мм. При наведении курсора мыши на число - период времени, за который выпало указанное количество осадков.
R24 - Количество осадков - Количество выпавших осадков за 24 часа, мм.
S - Снежный покров - Высота снежного покрова, см. При наведении курсора мыши на число - состояние снежного покрова и степень покрытия местности в баллах.